This is the latest recevied weather packets stored in our database for station/object KA3ZXO. If no packets are shown the sender has not sent any weather packets the latest 10 day(s).
| Time | Temp. | Humidity | Pressure | Rain* | Wind** | Luminosity | Snow |
|---|---|---|---|---|---|---|---|
| 1778106923 | 21.11° C | 79% | 1008.3 hPa | 0 mm | - | 42 W/m² | - |
| 1778106322 | 21.11° C | 78% | 1008.6 hPa | 0 mm | - | 56 W/m² | - |
| 1778105721 | 21.67° C | 78% | 1008.6 hPa | 0 mm | - | 66 W/m² | - |
| 1778105120 | 21.67° C | 77% | 1008.5 hPa | 0 mm | - | 62 W/m² | - |
| 1778104519 | 21.67° C | 77% | 1008.7 hPa | 0 mm | - | 120 W/m² | - |
| 1778103918 | 21.11° C | 77% | 1008.6 hPa | 0 mm | - | 153 W/m² | - |
| 1778103313 | 21.11° C | 79% | 1008.6 hPa | 0 mm | - | 95 W/m² | - |
| 1778102712 | 21.11° C | 77% | 1008.7 hPa | 0 mm | - | 129 W/m² | - |
| 1778102109 | 21.11° C | 77% | 1008.7 hPa | 0 mm | - | 142 W/m² | - |
| 1778101508 | 21.11° C | 78% | 1008.7 hPa | 0 mm | - | 137 W/m² | - |
| 1778100908 | 20.56° C | 79% | 1008.4 hPa | 0 mm | - | 159 W/m² | - |
| 1778100308 | 20.56° C | 82% | 1008.7 hPa | 0 mm | - | 113 W/m² | - |
| 1778099702 | 20° C | 83% | 1008.7 hPa | 0 mm | - | 77 W/m² | - |
| 1778099102 | 20° C | 84% | 1008.7 hPa | 0 mm | - | 82 W/m² | - |
| 1778098502 | 20° C | 83% | 1008.7 hPa | 0 mm | - | 53 W/m² | - |
| 1778097900 | 20° C | 83% | 1008.6 hPa | 0 mm | - | 74 W/m² | - |
| 1778097300 | 20° C | 84% | 1008.8 hPa | 0 mm | - | 63 W/m² | - |
| 1778096700 | 20° C | 83% | 1009 hPa | 0 mm | - | 67 W/m² | - |
| 1778096100 | 20° C | 82% | 1009.5 hPa | 0 mm | - | 69 W/m² | - |
| 1778095499 | 20° C | 82% | 1009.2 hPa | 0 mm | - | 68 W/m² | - |
| 1778094898 | 20° C | 83% | 1009.5 hPa | 0 mm | - | 101 W/m² | - |
| 1778094297 | 20° C | 82% | 1009.5 hPa | 0 mm | - | 105 W/m² | - |
| 1778093697 | 20° C | 82% | 1009.5 hPa | 0 mm | - | 145 W/m² | - |
| 1778093097 | 20° C | 83% | 1009.7 hPa | 0 mm | - | 73 W/m² | - |
| 1778092495 | 20° C | 83% | 1009.8 hPa | 0 mm | - | 89 W/m² | - |
* Rain latest hour (hover to see other rain measurements)
** Current wind speed in m/s (hover to see current wind gust speed)